Year,Month,Day,Hour,Minute,Value (Times are PST for temperature in C)
2008,10,19,00,00,4.80
2008,10,19,00,01,4.80
2008,10,19,00,02,4.70
2008,10,19,00,03,4.70
2008,10,19,00,04,4.70
2008,10,19,00,05,4.70
2008,10,19,00,06,4.70
2008,10,19,00,07,4.70
2008,10,19,00,08,4.60
2008,10,19,00,09,4.60
2008,10,19,00,10,4.60
2008,10,19,00,11,4.60
2008,10,19,00,12,4.60
2008,10,19,00,13,4.60
2008,10,19,00,14,4.60
2008,10,19,00,15,4.60
2008,10,19,00,16,4.60
2008,10,19,00,17,4.60
2008,10,19,00,18,4.60
2008,10,19,00,19,4.60
2008,10,19,00,20,4.60
2008,10,19,00,21,4.60
2008,10,19,00,22,4.50
2008,10,19,00,23,4.50
2008,10,19,00,24,4.50
2008,10,19,00,25,4.50
2008,10,19,00,26,4.50
2008,10,19,00,27,4.50
2008,10,19,00,28,4.50
2008,10,19,00,29,4.50
2008,10,19,00,30,4.50
2008,10,19,00,31,4.40
2008,10,19,00,32,4.40
2008,10,19,00,33,4.50
2008,10,19,00,34,4.50
2008,10,19,00,35,4.50
2008,10,19,00,36,4.50
2008,10,19,00,37,4.40
2008,10,19,00,38,4.40
2008,10,19,00,39,4.40
2008,10,19,00,40,4.40
2008,10,19,00,41,4.40
2008,10,19,00,42,4.40
2008,10,19,00,43,4.40
2008,10,19,00,44,4.40
2008,10,19,00,45,4.40
2008,10,19,00,46,4.40
2008,10,19,00,47,4.40
2008,10,19,00,48,4.40
2008,10,19,00,49,4.40
2008,10,19,00,50,4.40
2008,10,19,00,51,4.40
2008,10,19,00,52,4.40
2008,10,19,00,53,4.40
2008,10,19,00,54,4.40
2008,10,19,00,55,4.40
2008,10,19,00,56,4.40
2008,10,19,00,57,4.40
2008,10,19,00,58,4.40
2008,10,19,00,59,4.50
2008,10,19,01,00,4.50
2008,10,19,01,01,4.60
2008,10,19,01,02,4.60
2008,10,19,01,03,4.60
2008,10,19,01,04,4.60
2008,10,19,01,05,4.70
2008,10,19,01,06,4.70
2008,10,19,01,07,4.70
2008,10,19,01,08,4.70
2008,10,19,01,09,4.70
2008,10,19,01,10,4.70
2008,10,19,01,11,4.70
2008,10,19,01,12,4.70
2008,10,19,01,13,4.70
2008,10,19,01,14,4.70
2008,10,19,01,15,4.70
2008,10,19,01,16,4.70
2008,10,19,01,17,4.70
2008,10,19,01,18,4.70
2008,10,19,01,19,4.70
2008,10,19,01,20,4.70
2008,10,19,01,21,4.70
2008,10,19,01,22,4.70
2008,10,19,01,23,4.80
2008,10,19,01,24,4.80
2008,10,19,01,25,4.80
2008,10,19,01,26,4.80
2008,10,19,01,27,4.80
2008,10,19,01,28,4.80
2008,10,19,01,29,4.80
2008,10,19,01,30,4.80
2008,10,19,01,31,4.80
2008,10,19,01,32,4.80
2008,10,19,01,33,4.80
2008,10,19,01,34,4.80
2008,10,19,01,35,4.80
2008,10,19,01,36,4.80
2008,10,19,01,37,4.70
2008,10,19,01,38,4.70
2008,10,19,01,39,4.70
2008,10,19,01,40,4.70
2008,10,19,01,41,4.60
2008,10,19,01,42,4.60
2008,10,19,01,43,4.60
2008,10,19,01,44,4.50
2008,10,19,01,45,4.50
2008,10,19,01,46,4.40
2008,10,19,01,47,4.40
2008,10,19,01,48,4.40
2008,10,19,01,49,4.40
2008,10,19,01,50,4.40
2008,10,19,01,51,4.30
2008,10,19,01,52,4.30
2008,10,19,01,53,4.30
2008,10,19,01,54,4.30
2008,10,19,01,55,4.30
2008,10,19,01,56,4.30
2008,10,19,01,57,4.30
2008,10,19,01,58,4.30
2008,10,19,01,59,4.30
2008,10,19,02,00,4.30
2008,10,19,02,01,4.30
2008,10,19,02,02,4.30
2008,10,19,02,03,4.40
2008,10,19,02,04,4.40
2008,10,19,02,05,4.40
2008,10,19,02,06,4.40
2008,10,19,02,07,4.30
2008,10,19,02,08,4.30
2008,10,19,02,09,4.30
2008,10,19,02,10,4.30
2008,10,19,02,11,4.30
2008,10,19,02,12,4.20
2008,10,19,02,13,4.20
2008,10,19,02,14,4.20
2008,10,19,02,15,4.20
2008,10,19,02,16,4.20
2008,10,19,02,17,4.20
2008,10,19,02,18,4.20
2008,10,19,02,19,4.10
2008,10,19,02,20,4.10
2008,10,19,02,21,4.10
2008,10,19,02,22,4.10
2008,10,19,02,23,4.10
2008,10,19,02,24,4.10
2008,10,19,02,25,4.10
2008,10,19,02,26,4.00
2008,10,19,02,27,4.00
2008,10,19,02,28,3.90
2008,10,19,02,29,3.90
2008,10,19,02,30,3.90
2008,10,19,02,31,3.90
2008,10,19,02,32,3.90
2008,10,19,02,33,3.80
2008,10,19,02,34,3.80
2008,10,19,02,35,3.80
2008,10,19,02,36,3.80
2008,10,19,02,37,3.70
2008,10,19,02,38,3.70
2008,10,19,02,39,3.70
2008,10,19,02,40,3.70
2008,10,19,02,41,3.70
2008,10,19,02,42,3.70
2008,10,19,02,43,3.70
2008,10,19,02,44,3.80
2008,10,19,02,45,3.80
2008,10,19,02,46,3.80
2008,10,19,02,47,3.80
2008,10,19,02,48,3.80
2008,10,19,02,49,3.80
2008,10,19,02,50,3.70
2008,10,19,02,51,3.70
2008,10,19,02,52,3.70
2008,10,19,02,53,3.70
2008,10,19,02,54,3.70
2008,10,19,02,55,3.60
2008,10,19,02,56,3.60
2008,10,19,02,57,3.60
2008,10,19,02,58,3.60
2008,10,19,02,59,3.50
2008,10,19,03,00,3.50
2008,10,19,03,01,3.50
2008,10,19,03,02,3.50
2008,10,19,03,03,3.40
2008,10,19,03,04,3.40
2008,10,19,03,05,3.40
2008,10,19,03,06,3.40
2008,10,19,03,07,3.40
2008,10,19,03,08,3.40
2008,10,19,03,09,3.40
2008,10,19,03,10,3.40
2008,10,19,03,11,3.40
2008,10,19,03,12,3.30
2008,10,19,03,13,3.30
2008,10,19,03,14,3.30
2008,10,19,03,15,3.30
2008,10,19,03,16,3.30
2008,10,19,03,17,3.30
2008,10,19,03,18,3.30
2008,10,19,03,19,3.30
2008,10,19,03,20,3.20
2008,10,19,03,21,3.20
2008,10,19,03,22,3.20
2008,10,19,03,23,3.20
2008,10,19,03,24,3.20
2008,10,19,03,25,3.20
2008,10,19,03,26,3.20
2008,10,19,03,27,3.20
2008,10,19,03,28,3.20
2008,10,19,03,29,3.20
2008,10,19,03,30,3.20
2008,10,19,03,31,3.20
2008,10,19,03,32,3.20
2008,10,19,03,33,3.20
2008,10,19,03,34,3.20
2008,10,19,03,35,3.20
2008,10,19,03,36,3.20
2008,10,19,03,37,3.20
2008,10,19,03,38,3.20
2008,10,19,03,39,3.20
2008,10,19,03,40,3.20
2008,10,19,03,41,3.20
2008,10,19,03,42,3.20
2008,10,19,03,43,3.20
2008,10,19,03,44,3.20
2008,10,19,03,45,3.10
2008,10,19,03,46,3.10
2008,10,19,03,47,3.10
2008,10,19,03,48,3.10
2008,10,19,03,49,3.10
2008,10,19,03,50,3.10
2008,10,19,03,51,3.10
2008,10,19,03,52,3.20
2008,10,19,03,53,3.20
2008,10,19,03,54,3.20
2008,10,19,03,55,3.20
2008,10,19,03,56,3.30
2008,10,19,03,57,3.30
2008,10,19,03,58,3.30
2008,10,19,03,59,3.30
2008,10,19,04,00,3.30
2008,10,19,04,01,3.30
2008,10,19,04,02,3.30
2008,10,19,04,03,3.30
2008,10,19,04,04,3.30
2008,10,19,04,30,2.90
2008,10,19,04,53,2.80
2008,10,19,05,08,2.80
2008,10,19,05,23,2.40
2008,10,19,05,39,2.40
2008,10,19,05,52,2.40
2008,10,19,05,53,2.50
2008,10,19,05,54,2.50
2008,10,19,05,55,2.50
2008,10,19,05,56,2.60
2008,10,19,05,57,2.50
2008,10,19,05,58,2.50
2008,10,19,05,59,2.50
2008,10,19,06,00,2.60
2008,10,19,06,01,2.60
2008,10,19,06,02,2.60
2008,10,19,06,03,2.60
2008,10,19,06,04,2.60
2008,10,19,06,05,2.60
2008,10,19,06,06,2.50
2008,10,19,06,07,2.60
2008,10,19,06,08,2.50
2008,10,19,06,09,2.50
2008,10,19,06,10,2.50
2008,10,19,06,11,2.50
2008,10,19,06,12,2.50
2008,10,19,06,13,2.50
2008,10,19,06,14,2.50
2008,10,19,06,15,2.40
2008,10,19,06,16,2.50
2008,10,19,06,17,2.40
2008,10,19,06,18,2.40
2008,10,19,06,19,2.50
2008,10,19,06,20,2.50
2008,10,19,06,21,2.50
2008,10,19,06,22,2.50
2008,10,19,06,23,2.50
2008,10,19,06,24,2.50
2008,10,19,06,25,2.40
2008,10,19,06,26,2.40
2008,10,19,06,27,2.40
2008,10,19,06,28,2.40
2008,10,19,06,29,2.40
2008,10,19,06,30,2.40
2008,10,19,06,31,2.40
2008,10,19,06,32,2.40
2008,10,19,06,33,2.30
2008,10,19,06,34,2.30
2008,10,19,06,35,2.30
2008,10,19,06,36,2.40
2008,10,19,06,37,2.30
2008,10,19,06,38,2.30
2008,10,19,06,39,2.30
2008,10,19,06,40,2.30
2008,10,19,06,41,2.30
2008,10,19,06,42,2.30
2008,10,19,06,43,2.30
2008,10,19,06,44,2.30
2008,10,19,06,45,2.30
2008,10,19,06,46,2.30
2008,10,19,06,47,2.30
2008,10,19,06,48,2.30
2008,10,19,06,49,2.30
2008,10,19,06,50,2.30
2008,10,19,06,51,2.30
2008,10,19,06,52,2.30
2008,10,19,06,53,2.30
2008,10,19,06,54,2.30
2008,10,19,06,55,2.30
2008,10,19,06,56,2.20
2008,10,19,06,57,2.20
2008,10,19,06,58,2.20
2008,10,19,06,59,2.20
2008,10,19,07,00,2.20
2008,10,19,07,01,2.20
2008,10,19,07,02,2.20
2008,10,19,07,03,2.20
2008,10,19,07,04,2.10
2008,10,19,07,05,2.10
2008,10,19,07,06,2.10
2008,10,19,07,07,2.10
2008,10,19,07,08,2.20
2008,10,19,07,09,2.20
2008,10,19,07,10,2.20
2008,10,19,07,11,2.20
2008,10,19,07,12,2.20
2008,10,19,07,13,2.20
2008,10,19,07,14,2.10
2008,10,19,07,15,2.20
2008,10,19,07,16,2.20
2008,10,19,07,17,2.20
2008,10,19,07,18,2.20
2008,10,19,07,19,2.30
2008,10,19,07,20,2.30
2008,10,19,07,21,2.30
2008,10,19,07,22,2.30
2008,10,19,07,23,2.40
2008,10,19,07,24,2.40
2008,10,19,07,25,2.40
2008,10,19,07,26,2.40
2008,10,19,07,27,2.40
2008,10,19,07,28,2.40
2008,10,19,07,29,2.40
2008,10,19,07,30,2.40
2008,10,19,07,31,2.30
2008,10,19,07,32,2.30
2008,10,19,07,33,2.30
2008,10,19,07,34,2.30
2008,10,19,07,35,2.30
2008,10,19,07,36,2.30
2008,10,19,07,37,2.30
2008,10,19,07,38,2.30
2008,10,19,07,39,2.30
2008,10,19,07,40,2.30
2008,10,19,07,41,2.30
2008,10,19,07,42,2.30
2008,10,19,07,43,2.30
2008,10,19,07,44,2.30
2008,10,19,07,45,2.30
2008,10,19,07,46,2.30
2008,10,19,07,47,2.30
2008,10,19,07,48,2.30
2008,10,19,07,49,2.30
2008,10,19,07,50,2.30
2008,10,19,07,51,2.30
2008,10,19,07,52,2.20
2008,10,19,07,53,2.20
2008,10,19,07,54,2.20
2008,10,19,07,55,2.20
2008,10,19,07,56,2.20
2008,10,19,07,57,2.20
2008,10,19,07,58,2.20
2008,10,19,07,59,2.30
2008,10,19,08,00,2.30
2008,10,19,08,01,2.30
2008,10,19,08,02,2.30
2008,10,19,08,03,2.40
2008,10,19,08,04,2.40
2008,10,19,08,05,2.40
2008,10,19,08,06,2.40
2008,10,19,08,07,2.50
2008,10,19,08,08,2.50
2008,10,19,08,09,2.60
2008,10,19,08,10,2.60
2008,10,19,08,11,2.70
2008,10,19,08,12,2.70
2008,10,19,08,13,2.70
2008,10,19,08,14,2.80
2008,10,19,08,15,2.80
2008,10,19,08,16,2.90
2008,10,19,08,17,2.90
2008,10,19,08,18,2.90
2008,10,19,08,19,3.00
2008,10,19,08,20,3.00
2008,10,19,08,21,3.10
2008,10,19,08,22,3.10
2008,10,19,08,23,3.20
2008,10,19,08,24,3.20
2008,10,19,08,25,3.30
2008,10,19,08,26,3.40
2008,10,19,08,27,3.40
2008,10,19,08,28,3.50
2008,10,19,08,29,3.50
2008,10,19,08,30,3.60
2008,10,19,08,31,3.70
2008,10,19,08,32,3.70
2008,10,19,08,33,3.80
2008,10,19,08,34,3.90
2008,10,19,08,35,3.90
2008,10,19,08,36,4.00
2008,10,19,08,37,4.00
2008,10,19,08,38,4.10
2008,10,19,08,39,4.20
2008,10,19,08,40,4.30
2008,10,19,08,41,4.40
2008,10,19,08,42,4.50
2008,10,19,08,43,4.60
2008,10,19,08,44,4.70
2008,10,19,08,45,4.70
2008,10,19,08,46,4.80
2008,10,19,08,47,4.80
2008,10,19,08,48,4.90
2008,10,19,08,49,4.90
2008,10,19,08,50,5.00
2008,10,19,08,51,5.00
2008,10,19,08,52,5.10
2008,10,19,08,53,5.20
2008,10,19,08,54,5.20
2008,10,19,08,55,5.30
2008,10,19,08,56,5.30
2008,10,19,08,57,5.40
2008,10,19,08,58,5.50
2008,10,19,08,59,5.50
2008,10,19,09,00,5.60
2008,10,19,09,01,5.70
2008,10,19,09,02,5.80
2008,10,19,09,03,5.80
2008,10,19,09,04,5.90
2008,10,19,09,05,6.00
2008,10,19,09,06,6.00
2008,10,19,09,07,6.20
2008,10,19,09,08,6.20
2008,10,19,09,09,6.30
2008,10,19,09,10,6.40
2008,10,19,09,11,6.50
2008,10,19,09,12,6.60
2008,10,19,09,13,6.70
2008,10,19,09,14,6.70
2008,10,19,09,15,6.80
2008,10,19,09,16,6.90
2008,10,19,09,17,6.90
2008,10,19,09,18,7.00
2008,10,19,09,19,7.00
2008,10,19,09,20,7.10
2008,10,19,09,21,7.10
2008,10,19,09,22,7.20
2008,10,19,09,23,7.20
2008,10,19,09,24,7.20
2008,10,19,09,25,7.30
2008,10,19,09,26,7.30
2008,10,19,09,27,7.40
2008,10,19,09,28,7.40
2008,10,19,09,29,7.50
2008,10,19,09,30,7.60
2008,10,19,09,31,7.60
2008,10,19,09,32,7.70
2008,10,19,09,33,7.70
2008,10,19,09,34,7.70
2008,10,19,09,35,7.80
2008,10,19,09,36,7.80
2008,10,19,09,37,7.90
2008,10,19,09,38,7.90
2008,10,19,09,39,7.90
2008,10,19,09,40,8.00
2008,10,19,09,41,8.00
2008,10,19,09,42,8.10
2008,10,19,09,43,8.10
2008,10,19,09,44,8.10
2008,10,19,09,45,8.20
2008,10,19,09,46,8.20
2008,10,19,09,47,8.20
2008,10,19,09,48,8.20
2008,10,19,09,49,8.30
2008,10,19,09,50,8.30
2008,10,19,09,51,8.30
2008,10,19,09,52,8.40
2008,10,19,09,53,8.40
2008,10,19,09,54,8.40
2008,10,19,09,55,8.40
2008,10,19,09,56,8.50
2008,10,19,09,57,8.50
2008,10,19,09,58,8.50
2008,10,19,09,59,8.50
2008,10,19,10,00,8.50
2008,10,19,10,01,8.60
2008,10,19,10,02,8.60
2008,10,19,10,03,8.60
2008,10,19,10,04,8.60
2008,10,19,10,05,8.60
2008,10,19,10,06,8.70
2008,10,19,10,07,8.70
2008,10,19,10,08,8.70
2008,10,19,10,09,8.70
2008,10,19,10,10,8.70
2008,10,19,10,11,8.70
2008,10,19,10,12,8.70
2008,10,19,10,13,8.70
2008,10,19,10,14,8.70
2008,10,19,10,15,8.70
2008,10,19,10,16,8.70
2008,10,19,10,17,8.70
2008,10,19,10,18,8.70
2008,10,19,10,19,8.80
2008,10,19,10,20,8.80
2008,10,19,10,21,8.80
2008,10,19,10,22,8.90
2008,10,19,10,23,8.90
2008,10,19,10,24,9.00
2008,10,19,10,25,9.10
2008,10,19,10,26,9.10
2008,10,19,10,27,9.10
2008,10,19,10,28,9.20
2008,10,19,10,29,9.20
2008,10,19,10,30,9.20
2008,10,19,10,31,9.20
2008,10,19,10,32,9.20
2008,10,19,10,33,9.10
2008,10,19,10,34,9.10
2008,10,19,10,35,9.10
2008,10,19,10,36,9.10
2008,10,19,10,37,9.20
2008,10,19,10,38,9.20
2008,10,19,10,39,9.20
2008,10,19,10,40,9.20
2008,10,19,10,41,9.20
2008,10,19,10,42,9.20
2008,10,19,10,43,9.30
2008,10,19,10,44,9.30
2008,10,19,10,45,9.30
2008,10,19,10,46,9.30
2008,10,19,10,47,9.20
2008,10,19,10,48,9.20
2008,10,19,10,49,9.20
2008,10,19,10,50,9.20
2008,10,19,10,51,9.20
2008,10,19,10,52,9.30
2008,10,19,10,53,9.30
2008,10,19,10,54,9.30
2008,10,19,10,55,9.30
2008,10,19,10,56,9.30
2008,10,19,10,57,9.30
2008,10,19,10,58,9.20
2008,10,19,10,59,9.20
2008,10,19,11,00,9.20
2008,10,19,11,01,9.20
2008,10,19,11,02,9.20
2008,10,19,11,03,9.20
2008,10,19,11,04,9.10
2008,10,19,11,05,9.10
2008,10,19,11,06,9.20
2008,10,19,11,07,9.20
2008,10,19,11,08,9.20
2008,10,19,11,09,9.20
2008,10,19,11,10,9.20
2008,10,19,11,11,9.30
2008,10,19,11,12,9.30
2008,10,19,11,13,9.30
2008,10,19,11,14,9.30
2008,10,19,11,15,9.30
2008,10,19,11,16,9.40
2008,10,19,11,17,9.40
2008,10,19,11,18,9.40
2008,10,19,11,19,9.50
2008,10,19,11,20,9.50
2008,10,19,11,21,9.60
2008,10,19,11,22,9.60
2008,10,19,11,23,9.60
2008,10,19,11,24,9.60
2008,10,19,11,25,9.60
2008,10,19,11,26,9.60
2008,10,19,11,27,9.60
2008,10,19,11,28,9.60
2008,10,19,11,29,9.60
2008,10,19,11,30,9.60
2008,10,19,11,31,9.60
2008,10,19,11,32,9.60
2008,10,19,11,33,9.50
2008,10,19,11,34,9.50
2008,10,19,11,35,9.50
2008,10,19,11,36,9.50
2008,10,19,11,37,9.50
2008,10,19,11,38,9.50
2008,10,19,11,39,9.50
2008,10,19,11,40,9.50
2008,10,19,11,41,9.50
2008,10,19,11,42,9.50
2008,10,19,11,43,9.50
2008,10,19,11,44,9.50
2008,10,19,11,45,9.50
2008,10,19,11,46,9.60
2008,10,19,11,47,9.60
2008,10,19,11,48,9.50
2008,10,19,11,49,9.50
2008,10,19,11,50,9.50
2008,10,19,11,51,9.50
2008,10,19,11,52,9.60
2008,10,19,11,53,9.60
2008,10,19,11,54,9.60
2008,10,19,11,55,9.60
2008,10,19,11,56,9.60
2008,10,19,11,57,9.60
2008,10,19,11,58,9.60
2008,10,19,11,59,9.60
2008,10,19,12,00,9.70
2008,10,19,12,01,9.60
2008,10,19,12,02,9.60
2008,10,19,12,03,9.60
2008,10,19,12,04,9.60
2008,10,19,12,05,9.60
2008,10,19,12,06,9.60
2008,10,19,12,07,9.60
2008,10,19,12,08,9.60
2008,10,19,12,09,9.60
2008,10,19,12,10,9.60
2008,10,19,12,11,9.60
2008,10,19,12,12,9.60
2008,10,19,12,13,9.60
2008,10,19,12,14,9.60
2008,10,19,12,15,9.60
2008,10,19,12,16,9.70
2008,10,19,12,17,9.70
2008,10,19,12,18,9.70
2008,10,19,12,19,9.70
2008,10,19,12,20,9.70
2008,10,19,12,21,9.70
2008,10,19,12,22,9.70
2008,10,19,12,23,9.70
2008,10,19,12,24,9.70
2008,10,19,12,25,9.70
2008,10,19,12,26,9.70
2008,10,19,12,27,9.70
2008,10,19,12,28,9.70
2008,10,19,12,29,9.70
2008,10,19,12,30,9.70
2008,10,19,12,31,9.70
2008,10,19,12,32,9.70
2008,10,19,12,33,9.70
2008,10,19,12,34,9.70
2008,10,19,12,35,9.70
2008,10,19,12,36,9.60
2008,10,19,12,37,9.60
2008,10,19,12,38,9.60
2008,10,19,12,39,9.60
2008,10,19,12,40,9.60
2008,10,19,12,41,9.60
2008,10,19,12,42,9.60
2008,10,19,12,43,9.60
2008,10,19,12,44,9.60
2008,10,19,12,45,9.60
2008,10,19,12,46,9.60
2008,10,19,12,47,9.70
2008,10,19,12,48,9.70
2008,10,19,12,49,9.70
2008,10,19,12,50,9.70
2008,10,19,12,51,9.70
2008,10,19,12,52,9.80
2008,10,19,12,53,9.80
2008,10,19,12,54,9.80
2008,10,19,12,55,9.80
2008,10,19,12,56,9.90
2008,10,19,12,57,9.90
2008,10,19,12,58,9.90
2008,10,19,12,59,9.90
2008,10,19,13,00,9.90
2008,10,19,13,01,9.90
2008,10,19,13,02,9.90
2008,10,19,13,03,9.90
2008,10,19,13,04,9.90
2008,10,19,13,05,10.00
2008,10,19,13,06,10.00
2008,10,19,13,07,10.10
2008,10,19,13,08,10.10
2008,10,19,13,09,10.10
2008,10,19,13,10,10.10
2008,10,19,13,11,10.10
2008,10,19,13,12,10.10
2008,10,19,13,13,10.10
2008,10,19,13,14,10.10
2008,10,19,13,15,10.10
2008,10,19,13,16,10.10
2008,10,19,13,17,10.10
2008,10,19,13,18,10.10
2008,10,19,13,19,10.10
2008,10,19,13,20,10.00
2008,10,19,13,21,10.00
2008,10,19,13,22,10.00
2008,10,19,13,23,10.00
2008,10,19,13,24,10.00
2008,10,19,13,25,10.00
2008,10,19,13,26,10.00
2008,10,19,13,27,10.00
2008,10,19,13,28,10.10
2008,10,19,13,29,10.10
2008,10,19,13,30,10.20
2008,10,19,13,31,10.20
2008,10,19,13,32,10.20
2008,10,19,13,33,10.20
2008,10,19,13,34,10.20
2008,10,19,13,35,10.20
2008,10,19,13,36,10.20
2008,10,19,13,37,10.20
2008,10,19,13,38,10.10
2008,10,19,13,39,10.10
2008,10,19,13,40,10.10
2008,10,19,13,41,10.10
2008,10,19,13,42,10.10
2008,10,19,13,43,10.00
2008,10,19,13,44,10.00
2008,10,19,13,45,10.10
2008,10,19,13,46,10.10
2008,10,19,13,47,10.10
2008,10,19,13,48,10.10
2008,10,19,13,49,10.20
2008,10,19,13,50,10.20
2008,10,19,13,51,10.30
2008,10,19,13,52,10.30
2008,10,19,13,53,10.30
2008,10,19,13,54,10.30
2008,10,19,13,55,10.40
2008,10,19,13,56,10.40
2008,10,19,13,57,10.40
2008,10,19,13,58,10.40
2008,10,19,13,59,10.40
2008,10,19,14,00,10.40
2008,10,19,14,01,10.30
2008,10,19,14,02,10.20
2008,10,19,14,03,10.10
2008,10,19,14,04,10.00
2008,10,19,14,05,9.90
2008,10,19,14,06,9.90
2008,10,19,14,07,9.90
2008,10,19,14,08,9.90
2008,10,19,14,09,9.90
2008,10,19,14,10,9.90
2008,10,19,14,11,9.90
2008,10,19,14,12,9.90
2008,10,19,14,13,10.00
2008,10,19,14,14,10.00
2008,10,19,14,15,10.00
2008,10,19,14,16,10.00
2008,10,19,14,17,10.00
2008,10,19,14,18,10.00
2008,10,19,14,19,10.00
2008,10,19,14,20,10.00
2008,10,19,14,21,10.00
2008,10,19,14,22,10.00
2008,10,19,14,23,10.00
2008,10,19,14,24,10.00
2008,10,19,14,25,10.00
2008,10,19,14,26,10.10
2008,10,19,14,27,10.10
2008,10,19,14,28,10.20
2008,10,19,14,29,10.30
2008,10,19,14,30,10.30
2008,10,19,14,31,10.30
2008,10,19,14,32,10.30
2008,10,19,14,33,10.30
2008,10,19,14,34,10.30
2008,10,19,14,35,10.30
2008,10,19,14,36,10.30
2008,10,19,14,37,10.30
2008,10,19,14,38,10.30
2008,10,19,14,39,10.30
2008,10,19,14,40,10.30
2008,10,19,14,41,10.30
2008,10,19,14,42,10.20
2008,10,19,14,43,10.20
2008,10,19,14,44,10.20
2008,10,19,14,45,10.20
2008,10,19,14,46,10.20
2008,10,19,14,47,10.30
2008,10,19,14,48,10.30
2008,10,19,14,49,10.40
2008,10,19,14,50,10.40
2008,10,19,14,51,10.40
2008,10,19,14,52,10.30
2008,10,19,14,53,10.30
2008,10,19,14,54,10.40
2008,10,19,14,55,10.40
2008,10,19,14,56,10.50
2008,10,19,14,57,10.60
2008,10,19,14,58,10.60
2008,10,19,14,59,10.70
2008,10,19,15,00,10.60
2008,10,19,15,01,10.60
2008,10,19,15,02,10.50
2008,10,19,15,03,10.40
2008,10,19,15,04,10.40
2008,10,19,15,05,10.40
2008,10,19,15,06,10.40
2008,10,19,15,07,10.40
2008,10,19,15,08,10.40
2008,10,19,15,09,10.40
2008,10,19,15,10,10.50
2008,10,19,15,11,10.40
2008,10,19,15,12,10.40
2008,10,19,15,13,10.40
2008,10,19,15,14,10.30
2008,10,19,15,15,10.30
2008,10,19,15,16,10.30
2008,10,19,15,17,10.20
2008,10,19,15,18,10.20
2008,10,19,15,19,10.20
2008,10,19,15,20,10.20
2008,10,19,15,21,10.20
2008,10,19,15,22,10.20
2008,10,19,15,23,10.20
2008,10,19,15,24,10.20
2008,10,19,15,25,10.20
2008,10,19,15,26,10.20
2008,10,19,15,27,10.20
2008,10,19,15,28,10.20
2008,10,19,15,29,10.20
2008,10,19,15,30,10.20
2008,10,19,15,31,10.10
2008,10,19,15,32,10.10
2008,10,19,15,33,10.20
2008,10,19,15,34,10.10
2008,10,19,15,35,10.10
2008,10,19,15,36,10.10
2008,10,19,15,37,10.10
2008,10,19,15,38,10.10
2008,10,19,15,39,10.10
2008,10,19,15,40,10.10
2008,10,19,15,41,10.20
2008,10,19,15,42,10.20
2008,10,19,15,43,10.20
2008,10,19,15,44,10.20
2008,10,19,15,45,10.10
2008,10,19,15,46,10.10
2008,10,19,15,47,10.10
2008,10,19,15,48,10.10
2008,10,19,15,49,10.10
2008,10,19,15,50,10.10
2008,10,19,15,51,10.10
2008,10,19,15,52,10.10
2008,10,19,15,53,10.10
2008,10,19,15,54,10.10
2008,10,19,15,55,10.10
2008,10,19,15,56,10.10
2008,10,19,15,57,10.10
2008,10,19,15,58,10.10
2008,10,19,15,59,10.10
2008,10,19,16,00,10.10
2008,10,19,16,01,10.10
2008,10,19,16,02,10.10
2008,10,19,16,03,10.10
2008,10,19,16,04,10.10
2008,10,19,16,05,10.10
2008,10,19,16,06,10.10
2008,10,19,16,07,10.10
2008,10,19,16,08,10.10
2008,10,19,16,09,10.10
2008,10,19,16,10,10.10
2008,10,19,16,11,10.10
2008,10,19,16,12,10.10
2008,10,19,16,13,10.10
2008,10,19,16,14,10.10
2008,10,19,16,15,10.10
2008,10,19,16,16,10.10
2008,10,19,16,17,10.10
2008,10,19,16,18,10.20
2008,10,19,16,19,10.20
2008,10,19,16,20,10.20
2008,10,19,16,21,10.20
2008,10,19,16,22,10.30
2008,10,19,16,23,10.30
2008,10,19,16,24,10.30
2008,10,19,16,25,10.30
2008,10,19,16,26,10.30
2008,10,19,16,27,10.30
2008,10,19,16,28,10.30
2008,10,19,16,29,10.30
2008,10,19,16,30,10.30
2008,10,19,16,31,10.30
2008,10,19,16,32,10.30
2008,10,19,16,33,10.30
2008,10,19,16,34,10.20
2008,10,19,16,35,10.20
2008,10,19,16,36,10.20
2008,10,19,16,37,10.20
2008,10,19,16,38,10.10
2008,10,19,16,39,10.10
2008,10,19,16,40,10.10
2008,10,19,16,41,10.10
2008,10,19,16,42,10.10
2008,10,19,16,43,10.00
2008,10,19,16,44,10.00
2008,10,19,16,45,9.90
2008,10,19,16,46,9.90
2008,10,19,16,47,9.90
2008,10,19,16,48,9.90
2008,10,19,16,49,9.90
2008,10,19,16,50,9.90
2008,10,19,16,51,9.80
2008,10,19,16,52,9.80
2008,10,19,16,53,9.80
2008,10,19,16,54,9.80
2008,10,19,16,55,9.80
2008,10,19,16,56,9.80
2008,10,19,16,57,9.80
2008,10,19,16,58,9.80
2008,10,19,16,59,9.80
2008,10,19,17,00,9.70
2008,10,19,17,01,9.70
2008,10,19,17,02,9.70
2008,10,19,17,03,9.70
2008,10,19,17,04,9.70
2008,10,19,17,05,9.70
2008,10,19,17,06,9.60
2008,10,19,17,07,9.60
2008,10,19,17,08,9.60
2008,10,19,17,09,9.60
2008,10,19,17,10,9.60
2008,10,19,17,11,9.60
2008,10,19,17,12,9.60
2008,10,19,17,13,9.60
2008,10,19,17,14,9.50
2008,10,19,17,15,9.50
2008,10,19,17,16,9.50
2008,10,19,17,17,9.50
2008,10,19,17,18,9.40
2008,10,19,17,19,9.50
2008,10,19,17,20,9.40
2008,10,19,17,21,9.40
2008,10,19,17,22,9.40
2008,10,19,17,23,9.40
2008,10,19,17,24,9.40
2008,10,19,17,25,9.40
2008,10,19,17,26,9.40
2008,10,19,17,27,9.40
2008,10,19,17,28,9.40
2008,10,19,17,29,9.40
2008,10,19,17,30,9.50
2008,10,19,17,31,9.50
2008,10,19,17,32,9.50
2008,10,19,17,33,9.50
2008,10,19,17,34,9.50
2008,10,19,17,35,9.50
2008,10,19,17,36,9.50
2008,10,19,17,37,9.50
2008,10,19,17,38,9.50
2008,10,19,17,39,9.50
2008,10,19,17,40,9.50
2008,10,19,17,41,9.50
2008,10,19,17,42,9.50
2008,10,19,17,43,9.40
2008,10,19,17,44,9.40
2008,10,19,17,45,9.40
2008,10,19,17,46,9.40
2008,10,19,17,47,9.30
2008,10,19,17,48,9.30
2008,10,19,17,49,9.20
2008,10,19,17,50,9.20
2008,10,19,17,51,9.10
2008,10,19,17,52,9.10
2008,10,19,17,53,9.00
2008,10,19,17,54,9.00
2008,10,19,17,55,8.90
2008,10,19,17,56,8.90
2008,10,19,17,57,8.90
2008,10,19,17,58,8.80
2008,10,19,17,59,8.80
2008,10,19,18,00,8.80
2008,10,19,18,01,8.80
2008,10,19,18,02,8.80
2008,10,19,18,03,8.80
2008,10,19,18,04,8.80
2008,10,19,18,05,8.70
2008,10,19,18,06,8.70
2008,10,19,18,07,8.70
2008,10,19,18,08,8.70
2008,10,19,18,09,8.70
2008,10,19,18,10,8.70
2008,10,19,18,11,8.70
2008,10,19,18,12,8.70
2008,10,19,18,13,8.70
2008,10,19,18,14,8.70
2008,10,19,18,15,8.70
2008,10,19,18,16,8.70
2008,10,19,18,17,8.70
2008,10,19,18,18,8.60
2008,10,19,18,19,8.60
2008,10,19,18,20,8.60
2008,10,19,18,21,8.60
2008,10,19,18,22,8.60
2008,10,19,18,23,8.70
2008,10,19,18,24,8.70
2008,10,19,18,25,8.70
2008,10,19,18,26,8.70
2008,10,19,18,27,8.70
2008,10,19,18,28,8.70
2008,10,19,18,29,8.70
2008,10,19,18,30,8.70
2008,10,19,18,31,8.70
2008,10,19,18,32,8.70
2008,10,19,18,33,8.70
2008,10,19,18,34,8.70
2008,10,19,18,35,8.70
2008,10,19,18,36,8.70
2008,10,19,18,37,8.70
2008,10,19,18,38,8.70
2008,10,19,18,39,8.80
2008,10,19,18,40,8.80
2008,10,19,18,41,8.80
2008,10,19,18,42,8.80
2008,10,19,18,43,8.70
2008,10,19,18,44,8.70
2008,10,19,18,45,8.70
2008,10,19,18,46,8.70
2008,10,19,18,47,8.70
2008,10,19,18,48,8.70
2008,10,19,18,49,8.70
2008,10,19,18,50,8.70
2008,10,19,18,51,8.70
2008,10,19,18,52,8.70
2008,10,19,18,53,8.60
2008,10,19,18,54,8.60
2008,10,19,18,55,8.60
2008,10,19,18,56,8.60
2008,10,19,18,57,8.60
2008,10,19,18,58,8.60
2008,10,19,18,59,8.60
2008,10,19,19,00,8.60
2008,10,19,19,01,8.60
2008,10,19,19,02,8.50
2008,10,19,19,03,8.50
2008,10,19,19,04,8.50
2008,10,19,19,05,8.50
2008,10,19,19,06,8.50
2008,10,19,19,07,8.50
2008,10,19,19,08,8.50
2008,10,19,19,09,8.50
2008,10,19,19,10,8.50
2008,10,19,19,11,8.50
2008,10,19,19,12,8.50
2008,10,19,19,13,8.40
2008,10,19,19,14,8.40
2008,10,19,19,15,8.40
2008,10,19,19,16,8.40
2008,10,19,19,17,8.40
2008,10,19,19,18,8.40
2008,10,19,19,19,8.40
2008,10,19,19,20,8.40
2008,10,19,19,21,8.40
2008,10,19,19,22,8.40
2008,10,19,19,23,8.40
2008,10,19,19,24,8.40
2008,10,19,19,25,8.40
2008,10,19,19,26,8.40
2008,10,19,19,27,8.30
2008,10,19,19,28,8.30
2008,10,19,19,29,8.30
2008,10,19,19,30,8.30
2008,10,19,19,31,8.30
2008,10,19,19,32,8.30
2008,10,19,19,33,8.30
2008,10,19,19,34,8.30
2008,10,19,19,35,8.30
2008,10,19,19,36,8.30
2008,10,19,19,37,8.30
2008,10,19,19,38,8.30
2008,10,19,19,39,8.30